Location: Newark
(40.4881°N, 5.6117°W)
Time: 15:16:00
(UTC+00:00)

ISS - Visible Passes

Search period start: 20 October 2019 00:00
Search period end: 30 October 2019 00:00
Orbit: 411 x 421 km, 51.6° (Epoch: 20 October)

Date Brightness Start Highest point End Pass type
(mag) Time Alt. Az. Time Alt. Az. Time Alt. Az.
23 Oct -0.8 05:34:17 10° S 05:36:30 17° SE 05:38:43 10° E visible
25 Oct -2.8 05:32:30 10° SSW 05:35:44 47° SE 05:38:59 10° ENE visible
26 Oct -1.9 04:46:39 25° SSE 04:47:13 26° SE 04:50:05 10° ENE visible
27 Oct -0.2 04:00:39 10° E 04:00:39 10° E 04:00:47 10° E visible
27 Oct -3.7 05:33:35 28° WSW 05:35:08 60° NW 05:38:29 10° NE visible
28 Oct -2.7 04:47:24 44° ENE 04:47:24 44° ENE 04:49:52 10° NE visible
29 Oct -0.1 04:01:06 10° ENE 04:01:06 10° ENE 04:01:06 10° ENE visible
29 Oct -2.6 05:34:00 25° NW 05:34:42 27° NNW 05:37:39 10° NE visible
